{"data":{"norad_id":55472,"intl_designator":"2023-015Z","name":"STARLINK-5705","alt_names":[],"object_type":"PAYLOAD","status":"ACTIVE","operator":null,"country":"US","launch_date":"2023-02-02","launch_site_code":"AFETR","launch_vehicle":null,"mission":null,"orbit_class":"UNKNOWN","rcs_meters":null,"size_class":null,"mass_kg":null,"dimensions":null,"purposes":["comms"],"wikipedia_slug":null,"has_3d_model":false,"image_url":null,"decayed_at":null,"tle_current":{"epoch":"2026-09-20T13:25:51.459168Z","epoch_age_seconds":95041,"freshness":"FRESH","line1":"1 55472U 23015Z   26263.55962337  .00018686  00000+0  68895-3 0  9990","line2":"2 55472  43.0034 301.2653 0001090 204.6567 155.4232 15.27478926200600","mean_motion":15.27478926,"eccentricity":0.000109,"inclination_deg":43.0034,"raan_deg":301.2653,"arg_perigee_deg":204.6567,"mean_anomaly_deg":155.4232,"bstar":0.00068895,"rev_number":20060,"period_min":94.272986388815,"perigee_km":482.60386237021,"apogee_km":484.09966692091,"semimajor_km":6861.4887646456,"source":"CELESTRAK","updated_at":"2026-09-21T09:00:33.232442Z"}}}